Winfield, KS

12:58 PM CDT on August 17, 2017 (GMT -0500)
Strother

Weather History for KWLD - August, 2014

Change the Weather History Date:

Monday, August 11, 2014

  Actual Average Record
Temperature  
Mean Temperature 76 °F -  
Max Temperature 87 °F 88 °F 102 °F (2010)
Min Temperature 66 °F 66 °F 61 °F (2012)
Cooling Degree Days 12    
Growing Degree Days 26 (Base 50)    
Moisture  
Dew Point 64 °F    
Average Humidity 70    
Maximum Humidity 100    
Minimum Humidity 41    
Precipitation  
Precipitation 0.00 in - - ()
Sea Level Pressure  
Sea Level Pressure 30.08 in    
Wind  
Wind Speed 6 mph (North)    
Max Wind Speed 14 mph    
Max Gust Speed 22 mph    
Visibility 10 miles    
Events      
Averages and records for this station are not official NWS values.
T = Trace of Precipitation, MM = Missing Value Source: NWS Daily Summary

Daily Weather History Graph

Daily Weather History Graph

Search for Another Location

Airport or City:

Trip Planner

Search our weather history database for the weather conditions in past years. The results will help you decide how hot, cold, wet, or windy it might be!

Date:

Astronomy

Aug. 11, 2014 Rise Set
Actual Time 6:41 AM CDT 8:24 PM CDT
Civil Twilight 6:13 AM CDT 8:52 PM CDT
Nautical Twilight 5:39 AM CDT 9:26 PM CDT
Astronomical Twilight 5:03 AM CDT 10:02 PM CDT
Moon 8:57 PM CDT (8/11) 7:45 AM CDT (8/11)
Length of Visible Light 14h 39m
Length of Day
13h 43m
Full, 99% of the Moon is Illuminated
Aug 11
Full
Aug 17
Last Quarter
Aug 25
New
Sep 2
First Quarter
Sep 8
Full

Hourly Weather History & Observations

Time (CDT) Temp. Heat Index Dew Point Humidity Pressure Visibility Wind Dir Wind Speed Gust Speed Precip Events Conditions
12:54 AM 73.0 °F - 68.0 °F 84% 30.07 in 10.0 mi NNE 3.5 mph - N/A   Clear
1:54 AM 71.1 °F - 68.0 °F 90% 30.06 in 10.0 mi NE 5.8 mph - N/A   Clear
2:54 AM 69.1 °F - 66.9 °F 93% 30.07 in 10.0 mi Calm Calm - N/A   Clear
3:54 AM 68.0 °F - 66.9 °F 96% 30.06 in 10.0 mi Calm Calm - N/A   Clear
4:54 AM 66.9 °F - 66.0 °F 97% 30.05 in 10.0 mi Calm Calm - N/A   Clear
5:54 AM 66.0 °F - 64.9 °F 96% 30.06 in 9.0 mi Calm Calm - N/A   Clear
6:54 AM 66.0 °F - 66.0 °F 100% 30.06 in 10.0 mi NNW 3.5 mph - N/A   Clear
7:54 AM 70.0 °F - 69.1 °F 97% 30.08 in 10.0 mi Calm Calm - N/A   Clear
8:54 AM 73.9 °F - 70.0 °F 87% 30.11 in 10.0 mi NW 9.2 mph - N/A   Partly Cloudy
9:54 AM 79.0 °F - 70.0 °F 74% 30.10 in 7.0 mi NNW 9.2 mph - N/A   Partly Cloudy
10:54 AM 82.0 °F 85.9 °F 70.0 °F 67% 30.12 in 10.0 mi North 10.4 mph - N/A   Partly Cloudy
11:54 AM 84.0 °F 87.8 °F 69.1 °F 61% 30.12 in 10.0 mi North 12.7 mph - N/A   Partly Cloudy
12:54 PM 84.9 °F 88.2 °F 68.0 °F 57% 30.11 in 10.0 mi North 13.8 mph - N/A   Scattered Clouds
1:54 PM 84.0 °F 86.3 °F 66.0 °F 55% 30.10 in 10.0 mi North 13.8 mph 21.9 mph N/A   Scattered Clouds
2:54 PM 87.1 °F 89.2 °F 66.0 °F 49% 30.09 in 10.0 mi North 13.8 mph 19.6 mph N/A   Partly Cloudy
3:54 PM 87.1 °F 88.9 °F 64.9 °F 48% 30.08 in 10.0 mi NNW 12.7 mph - N/A   Mostly Cloudy
4:54 PM 84.9 °F 85.4 °F 62.1 °F 46% 30.06 in 10.0 mi North 12.7 mph - N/A   Clear
5:54 PM 84.9 °F 84.4 °F 59.0 °F 41% 30.05 in 10.0 mi North 12.7 mph - N/A   Clear
6:54 PM 82.9 °F 82.4 °F 57.0 °F 41% 30.04 in 10.0 mi North 11.5 mph - N/A   Clear
7:54 PM 78.1 °F - 59.0 °F 52% 30.05 in 10.0 mi North 6.9 mph - N/A   Clear
8:54 PM 73.0 °F - 59.0 °F 61% 30.06 in 10.0 mi NW 4.6 mph - N/A   Clear
9:54 PM 72.0 °F - 57.0 °F 59% 30.09 in 10.0 mi Calm Calm - N/A   Clear
10:54 PM 71.1 °F - 57.0 °F 61% 30.10 in 10.0 mi NNE 5.8 mph - N/A   Clear
11:54 PM 68.0 °F - 57.0 °F 68% 30.11 in 10.0 mi NNE 5.8 mph - N/A   Clear